Miscellaneous Local Product
Issued by NWS North Platte, NE

Home | Current Version | Previous Version | Graphics & Text | Print | Product List | Glossary On
Versions: 1 2 3 4 5 6 7 8 9 10 11 12 13 14 15 16 17 18 19 20 21 22 23 24 25 26 27 28 29 30 31 32 33 34 35 36 37 38 39 40 41 42 43 44 45 46 47 48 49 50
000
AXUS43 KLBF 010510
MISLBF


WESTERN AND NORTH CENTRAL NEBRASKA HOURLY WEATHER ROUNDUP
NATIONAL WEATHER SERVICE NORTH PLATTE NE
1100 PM CST SAT JAN 31 2015

***STATIONS NOT REPORTING VARIABLES SUCH AS SKY/WEATHER OR
PRESSURE ARE PROVIDED BY THE NEBRASKA DEPARTMENT OF
ROADS...RAWS...AND APRS NETWORKS...AND ARE NOT UNDER
NATIONAL WEATHER SERVICE QUALITY CONTROL***

...OBSERVATIONS IN AND NEAR THE EASTERN PANHANDLE OF NEBRASKA...

CITY           SKY/WX    TMP DP  RH WIND       PRES   REMARKS
PINE RIDGE     LGT SNOW  16  13  88 N8        30.08R FOG     WCI   5
CHADRON        LGT SNOW  19  17  92 N12       30.08R FOG     WCI   7
ALLIANCE       CLOUDY    19  15  84 N15       29.98R WCI   5
SIDNEY         CLOUDY    23  20  88 N16       29.94R WCI  10
WHITECLAY        N/A     16  13  88 NE10        N/A  WCI   4
CRESCENT LAKE    N/A     17  14  87 N13G20      N/A  WCI   4
LISCO            N/A     24  17  74 NW9         N/A  WCI  14
LEWELLEN         N/A     18  17  93 N9          N/A  WCI   7
$$

...OBSERVATIONS IN NORTH CENTRAL NEBRASKA...

CITY           SKY/WX    TMP DP  RH WIND       PRES   REMARKS
VALENTINE      SNOW      15  11  83 N14       30.08R VSB 1/2 WCI   0
THEDFORD       LGT SNOW  18  16  89 N15G25    29.99R VSB 1   WCI   4
AINSWORTH      LGT SNOW  17  14  90 N21       30.02R WCI   0
O`NEILL        LGT SNOW  24  22  94 N18G24    29.97S WCI   9
ORD            LGT SNOW  24  21  88 N17       29.90R FOG     WCI  11
BROKEN BOW     LGT SNOW  22  18  85 N28       29.91R VSB 3/4 WCI   4
BROWNLEE         N/A     14  11  88 SE17        N/A  WCI  -3
VALENTINE NWR    N/A     15  12  88 N13G22      N/A  WCI   1
SPRINGVIEW       N/A     18  16  90 NE8G16      N/A  WCI   8
HALSEY           N/A     17  16  96 NW9G16      N/A  WCI   6
BREWSTER         N/A     23  22  96 E12         N/A  WCI  11
ROSE             N/A     25  25 100 N15         N/A  WCI  12
NEWPORT          N/A     26  25  96 S12         N/A  WCI  15
SARGENT          N/A     22  20  92 N3          N/A
COMSTOCK         N/A     29  28  96 N18         N/A  WCI  16
CHAMBERS         N/A     22  19  89 E9G18       N/A  WCI  12
EWING            N/A     25  24  95 N5          N/A  WCI  19
$$

...OBSERVATIONS IN SOUTHWEST NEBRASKA AND FAR NORTHEAST COLORADO...

CITY           SKY/WX    TMP DP  RH WIND       PRES   REMARKS
WRAY           LGT SNOW  28  26  93 N18       29.89S WCI  15
IMPERIAL       LGT SNOW  24  21  88 N22G28    29.91S FOG     WCI   9
OGALLALA       LGT SNOW  21  19  92 N15G22    29.95S WCI   8
NORTH PLATTE   LGT SNOW  20  16  84 N17G26    29.94R FOG     WCI   5
MCCOOK         LGT SNOW  27  24  89 N23G30    29.88R FOG     WCI  12
LEXINGTON      LGT SNOW  25  22  91 N23       29.88R WCI   9
BRADY            N/A     19  16  88 CALM        N/A
GOTHENBURG       N/A     21  19  91 CALM        N/A
CALLAWAY         N/A     19  18  94 N16         N/A  WCI   4
$$

...NORTH PLATTE AREA...

CITY           SKY/WX    TMP DP  RH WIND       PRES   REMARKS
AIRPORT        LGT SNOW  20  16  84 N17G26    29.94R FOG     WCI   5
DOWNTOWN         N/A     19  17  91 N8G17       N/A  WCI   9
$$

...SOME WEATHER OBSERVATIONS FROM AROUND THE REGION...

CITY           SKY/WX    TMP DP  RH WIND       PRES   REMARKS
DENVER         LGT SNOW  32  31  96 N6        29.89S FOG     WCI  26
LARAMIE        MOCLDY    23  17  78 N10       29.90R WCI  12
CHEYENNE       CLOUDY    27  21  78 N23G31    29.90R WCI  12
SCOTTSBLUFF    CLOUDY    24  21  88 N7        30.00R WCI  16
RAPID CITY     LGT SNOW  13  10  88 NE10      30.14R FOG     WCI   0
PIERRE         CLOUDY    11   1  64 N18       30.22R WCI  -7
WINNER         LGT SNOW  15  11  83 N21       30.12R VSB 3/4 WCI  -2
SIOUX FALLS    LGT SNOW  24  21  88 NE18      30.04R VSB 1   WCI  10
OMAHA          LGT SNOW  33  32  96 NE5       29.89F VSB 1   WCI  29
GRAND ISLAND   LGT SNOW  31  30  96 N12       29.84F FOG     WCI  22
KANSAS CITY    LGT SNOW  33  33 100 SE12      29.88F FOG     WCI  24
WICHITA        LGT RAIN  40  40 100 S12       29.81F FOG     WCI  33
HAYS           CLOUDY    39  34  81 NW6       29.76S WCI  35
LIBERAL        MOCLDY    41  36  81 NW10      29.84R
GOODLAND       CLOUDY    31  29  92 N15       29.84R WCI  20
$$



USA.gov is the U.S. government's official web portal to all federal, state and local government web resources and services.